Location: Bjelajci
(45.0103°N, 16.1758°E)
Time: 09:27:03
(UTC+00:00)

Meteor 1-14 Rocket - Pass Details

Date: 14 July 2020
Orbit: 834 x 918 km, 81.3° (Epoch: 07 August)

Event Time Altitude Azimuth Distance (km) Brightness Sun altitude
Exits shadow 00:22:25 42° 188° (S) 1,196 4.5 -20.8°
Maximum altitude 00:24:26 89° 102° (ESE) 854 4.1 -20.7°
Drops below altitude 10° 00:30:08 10° 11° (N) 2,506 7.8 -20.3°
Sets 00:32:36 0° 11° (NNE) 3,459 8.9 -20.2°
